This is the latest recevied weather packets stored in our database for station/object KN4CI-1. If no packets are shown the sender has not sent any weather packets the latest 10 day(s).
| Time | Temp. | Humidity | Pressure | Rain* | Wind** | Luminosity | Snow |
|---|---|---|---|---|---|---|---|
| 1777585953 | 20° C | 17% | 1014.6 hPa | 0 mm | 1.79 m/s, 36° | - | - |
| 1777585649 | 20° C | 17% | 1014.6 hPa | 0 mm | 2.68 m/s, 77° | - | - |
| 1777585326 | 20° C | 17% | 1014.6 hPa | 0 mm | 1.79 m/s, 49° | - | - |
| 1777585021 | 20° C | 17% | 1014.6 hPa | 0 mm | 2.24 m/s, 336° | - | - |
| 1777584417 | 20° C | 17% | 1014.6 hPa | 0 mm | 1.79 m/s, 13° | - | - |
| 1777584117 | 20° C | 17% | 1014.6 hPa | 0 mm | 2.24 m/s, 337° | - | - |
| 1777583818 | 20.56° C | 17% | 1014.6 hPa | 0 mm | 2.68 m/s, 331° | - | - |
| 1777583212 | 20.56° C | 17% | 1014.6 hPa | 0 mm | 1.79 m/s, 351° | - | - |
| 1777582912 | 20° C | 17% | 1014.6 hPa | 0 mm | 2.68 m/s, 23° | - | - |
| 1777582608 | 20.56° C | 17% | 1014.6 hPa | 0 mm | 3.13 m/s, 351° | - | - |
| 1777582299 | 20.56° C | 17% | 1014.6 hPa | 0 mm | 2.24 m/s, 345° | - | - |
| 1777581998 | 20.56° C | 17% | 1014.6 hPa | 0 mm | 1.79 m/s, 351° | - | - |
| 1777581694 | 20.56° C | 17% | 1014.6 hPa | 0 mm | 2.68 m/s, 56° | - | - |
| 1777581092 | 20.56° C | 17% | 1014.6 hPa | 0 mm | 3.13 m/s, 356° | - | - |
| 1777580789 | 20.56° C | 17% | 1014.6 hPa | 0 mm | 1.79 m/s, 10° | - | - |
| 1777580489 | 20° C | 17% | 1014.6 hPa | 0 mm | 2.24 m/s, 327° | - | - |
| 1777580187 | 20° C | 17% | 1014.6 hPa | 0 mm | 3.13 m/s, 343° | - | - |
| 1777579884 | 20° C | 17% | 1014.6 hPa | 0 mm | 2.24 m/s, 327° | - | - |
| 1777578670 | 20.56° C | 17% | 1015.6 hPa | 0 mm | 1.79 m/s, 351° | - | - |
| 1777578058 | 20.56° C | 17% | 1015.6 hPa | 0 mm | 1.34 m/s, 9° | - | - |
| 1777577453 | 20.56° C | 17% | 1015.6 hPa | 0 mm | 2.68 m/s, 12° | - | - |
| 1777577151 | 20.56° C | 17% | 1015.6 hPa | 0 mm | 1.79 m/s, 101° | - | - |
| 1777576851 | 20.56° C | 17% | 1015.6 hPa | 0 mm | 1.79 m/s, 356° | - | - |
| 1777575934 | 20.56° C | 17% | 1015.6 hPa | 0 mm | 1.79 m/s, 340° | - | - |
| 1777575634 | 20.56° C | 17% | 1015.6 hPa | 0 mm | 2.24 m/s, 49° | - | - |
* Rain latest hour (hover to see other rain measurements)
** Current wind speed in m/s (hover to see current wind gust speed)